SL-12 DEB, 41697

Orbit data source: Space-Track

SL-12 DEB, 41697 is space debris in HEO originally from a launch on Mon, 01 Mar 2010 UTC launched from the Tyuratam Missile And Space Complex (TTMTR). Debris objects in space refer to the collection of defunct objects orbiting the Earth. Examples of debris include non-operational satellites, rocket bodies, and fragments generated from explosions, collisions, or faulty payload assembly.

Loading next visibility...
Identifier
41697, 2010-007P
Orbit
HEO
Last TLE update
10 months ago
Origin
Manufacturer
RKKE
Mission
Spacecraft
Bus & Motor
Unknown
Mass
Unknown
Launch date (UTC)
2010-03-01 (15 years ago)
Launch vehicle
Unknown
Launch site
Tyuratam Missile And Space Complex (TTMTR)
Object type
Payload
Rocket body
Debris
Shape & HBR
Unknown
Radar Cross Section
Small (<0.1 m²)

Expand to show TLE details & history

TLE from 10 months ago
0 SL-12 DEB
1 41697U 10007P   24256.79819583 -.00020108  00000-0 -67108+0 0  9998
2 41697  65.4025 189.0905 5500021 315.9869  11.4576  4.16119980152626
Epoch: 2024-09-12T19:09Z
TLE epoch observation values (Epoch: 2024-09-12T19:09:24.119Z)
Latitude
0.00004°
Longitude
-90.54936°
Altitude
1,785.892 km
Speed
8.559 km/s
True Right ascension
12h 36m 19s
True Declination
0° 00' 00"
Sunlit
Object was in daylight at epoch
Visualization orbit readout
Latitude
-25.34053°
Longitude
10.22886°
Altitude
5,547.928 km
Speed
6.551 km/s
Apparent Right ascension
18h 50m 33s
Apparent Declination
-30° 44' 00"
Sunlit
Object is in daylight
Visualization observer readout
Local Sidereal Time
05:46:21
Azimuth
300.152° NW
Elevation
-74.045°
Doppler factor
1
Orbital elements
Apogee altitude
18,927.995 km
Perigee altitude
968.76 km
Semi-major axis
16,326.515 km
Eccentricity
0.55
Inclination
65.4025°
RAAN
189.0905°
Arg. of periapsis
315.9869°
True anomaly
Unknown
Mean anomaly
11.4576°
Eccentric anomaly
Unknown
Mean motion
1.04041 °/min
Orbital period
346.02 mins
BSTAR
-0.67108
Loading maneuver chart data...
Loading SW <> Apogee altitude chart data...
Loading historical data...
Loading historical data...
Loading historical data...
Loading historical data...
Loading historical data...
Loading historical data...
Loading historical data...

SL-12 DEB Visibility forecast

Observer location: undefined°, undefined°

Span
Click to sort rows by Start time (UTC) header in descending order
Start Az.
Max El. time (UTC)
Max El. Az.
Max El.
End time (UTC)
End Az.
155 mins2025-07-05 18:39:54.872Z180.277° SSW2025-07-05 18:59:54.872Z96.727° ESE42.897°2025-07-05 21:14:54.872Z40.353° NE
269 mins2025-07-06 01:01:54.872Z299.225° NW2025-07-06 03:49:54.872Z74.775° E43.809°2025-07-06 05:30:54.872Z155.391° SSE
164 mins2025-07-06 07:52:54.872Z334.181° NNW2025-07-06 09:10:54.872Z310.358° NW23.247°2025-07-06 10:36:54.872Z278.82° WNW
|